Minot, ND

12:27 AM CDT on October 21, 2017 (GMT -0500)
Minot International

Weather History for KMOT - December, 2014

Change the Weather History Date:

Sunday, December 7, 2014

  Actual Average Record
Temperature  
Mean Temperature 30 °F 18 °F  
Max Temperature 39 °F 26 °F 57 °F (1939)
Min Temperature 20 °F 10 °F -25 °F (1927)
Degree Days  
Heating Degree Days 35 47  
Month to date heating degree days 362 322  
Since 1 July heating degree days 2541 2380  
Moisture  
Dew Point 22 °F    
Average Humidity 76    
Maximum Humidity 88    
Minimum Humidity 64    
Precipitation  
Precipitation T in 0.01 in 0.60 in (1916)
Month to date precipitation T 0.09  
Year to date precipitation 15.95 16.90  
Sea Level Pressure  
Sea Level Pressure 30.01 in    
Wind  
Wind Speed 14 mph (WSW)    
Max Wind Speed 36 mph    
Max Gust Speed 42 mph    
Visibility 8 miles    
Events Snow    
T = Trace of Precipitation, MM = Missing Value Source: NWS Daily Summary

Daily Weather History Graph

Daily Weather History Graph

Search for Another Location

Airport or City:

Trip Planner

Search our weather history database for the weather conditions in past years. The results will help you decide how hot, cold, wet, or windy it might be!

Date:

Astronomy

Dec. 07, 2014 Rise Set
Actual Time 8:21 AM CST 4:51 PM CST
Civil Twilight 7:45 AM CST 5:27 PM CST
Nautical Twilight 7:06 AM CST 6:06 PM CST
Astronomical Twilight 6:28 AM CST 6:44 PM CST
Moon 6:26 PM CST (12/7) 9:02 AM CST (12/7)
Length of Visible Light 9h 41m
Length of Day
8h 29m
Full, 98% of the Moon is Illuminated
Dec 7
Full
Dec 14
Last Quarter
Dec 21
New
Dec 28
First Quarter
Jan 4
Full

Hourly Weather History & Observations

Time (CST) Temp. Windchill Dew Point Humidity Pressure Visibility Wind Dir Wind Speed Gust Speed Precip Events Conditions
12:54 AM 24.1 °F 18.2 °F 18.0 °F 77% 30.07 in 10.0 mi SE 4.6 mph - N/A   Clear
1:54 AM 23.0 °F 17.0 °F 17.1 °F 78% 30.04 in 10.0 mi ESE 4.6 mph - N/A   Clear
2:54 AM 21.9 °F 15.7 °F 18.0 °F 85% 30.03 in 10.0 mi SE 4.6 mph - N/A   Clear
3:54 AM 24.1 °F 19.7 °F 19.0 °F 81% 30.02 in 10.0 mi SSE 3.5 mph - N/A   Clear
4:54 AM 24.1 °F 19.7 °F 19.0 °F 81% 29.99 in 10.0 mi SSE 3.5 mph - N/A   Clear
5:54 AM 21.2 °F 14.9 °F 17.6 °F 86% 29.91 in 10.0 mi South 4.6 mph - N/A   Clear
6:54 AM 24.1 °F 15.2 °F 19.0 °F 81% 29.98 in 10.0 mi SSW 8.1 mph - N/A   Scattered Clouds
7:54 AM 24.1 °F 16.0 °F 19.9 °F 84% 29.97 in 10.0 mi SSW 6.9 mph - N/A   Clear
8:54 AM 25.0 °F 18.1 °F 21.0 °F 85% 29.96 in 10.0 mi WSW 5.8 mph - N/A   Partly Cloudy
9:54 AM 28.9 °F 19.2 °F 23.0 °F 78% 29.96 in 10.0 mi WSW 11.5 mph - N/A   Clear
10:54 AM 32.0 °F 26.4 °F 26.1 °F 79% 29.95 in 10.0 mi WSW 5.8 mph - N/A   Mostly Cloudy
11:54 AM 39.0 °F 32.3 °F 28.9 °F 67% 29.92 in 10.0 mi WSW 10.4 mph 20.7 mph N/A   Overcast
12:54 PM 39.0 °F 31.8 °F 30.0 °F 70% 29.92 in 10.0 mi WSW 11.5 mph - N/A   Scattered Clouds
1:54 PM 37.9 °F 29.6 °F 30.0 °F 73% 29.93 in 10.0 mi West 13.8 mph - N/A   Partly Cloudy
2:54 PM 37.0 °F 27.0 °F 28.9 °F 73% 29.94 in 10.0 mi West 18.4 mph 29.9 mph N/A   Clear
3:54 PM 34.0 °F 22.1 °F 28.0 °F 79% 29.99 in 10.0 mi West 21.9 mph 28.8 mph N/A   Partly Cloudy
4:09 PM 34.0 °F 22.7 °F 28.0 °F 79% 29.92 in 10.0 mi West 19.6 mph - N/A   Mostly Cloudy
4:18 PM 34.0 °F 22.1 °F 28.0 °F 79% 29.93 in 10.0 mi West 21.9 mph 28.8 mph N/A   Mostly Cloudy
4:37 PM 30.9 °F 17.5 °F 26.1 °F 82% 29.94 in 6.0 mi West 24.2 mph 35.7 mph 0.00 in   Haze
4:54 PM 30.0 °F 16.0 °F 26.1 °F 85% 30.03 in 5.0 mi WNW 25.3 mph 34.5 mph 0.00 in Snow Light Snow
5:37 PM 28.0 °F 13.9 °F 23.0 °F 81% 29.97 in 7.0 mi West 23.0 mph 35.7 mph 0.00 in Snow Light Snow
5:54 PM 28.0 °F 13.6 °F 21.9 °F 78% 30.06 in 9.0 mi West 24.2 mph 32.2 mph 0.00 in   Overcast
6:13 PM 27.0 °F 11.0 °F 21.0 °F 78% 29.98 in 9.0 mi West 28.8 mph 34.5 mph 0.00 in   Overcast
6:54 PM 25.0 °F 8.9 °F 19.9 °F 81% 30.09 in 2.0 mi West 26.5 mph 34.5 mph 0.00 in Snow Light Snow
7:01 PM 25.0 °F 9.2 °F 19.9 °F 81% 30.01 in 1.5 mi WNW 25.3 mph 39.1 mph 0.00 in Snow Light Snow
7:40 PM 24.1 °F 7.4 °F 19.0 °F 81% 30.02 in 2.0 mi WNW 27.6 mph 41.4 mph 0.00 in Snow Light Snow
7:50 PM 24.8 °F 9.3 °F 19.4 °F 80% 30.02 in 5.0 mi West 24.2 mph 35.7 mph 0.00 in Snow Light Snow
7:54 PM 24.1 °F 8.0 °F 18.0 °F 77% 30.11 in 7.0 mi West 25.3 mph - 0.00 in Snow Light Snow
8:17 PM 24.1 °F 7.1 °F 18.0 °F 77% 30.03 in 7.0 mi West 28.8 mph 39.1 mph 0.00 in Snow Light Snow
8:54 PM 23.0 °F 5.1 °F 18.0 °F 81% 30.14 in 5.0 mi WNW 31.1 mph 42.6 mph 0.00 in Snow Light Snow
9:54 PM 21.9 °F 5.8 °F 17.1 °F 82% 30.16 in 8.0 mi WNW 23.0 mph 32.2 mph 0.00 in Snow Light Snow
10:54 PM 21.9 °F 7.8 °F 18.0 °F 85% 30.16 in 8.0 mi WNW 17.3 mph - 0.00 in   Overcast
11:54 PM 23.0 °F 8.7 °F 18.0 °F 81% 30.16 in 9.0 mi West 18.4 mph - N/A   Overcast